| time (UTC) | temp C | wind direction | speed KPH | gust KPH | rain 1hr cm | rain 24hr cm | rain mn cm | humidity % | barometer mb |
| 20260505041535 | 6 | 262 | 14.5 | 0.0 | 0.00 | 0.53 | 0.00 | 83 | 1008.0 |
| 20260505041032 | 6 | 231 | 9.7 | 0.0 | 0.00 | 0.53 | 0.00 | 83 | 1007.7 |
| 20260505040530 | 6 | 231 | 6.4 | 0.0 | 0.00 | 0.53 | 0.00 | 82 | 1007.7 |
| 20260505035528 | 6 | 239 | 8.0 | 0.0 | 0.00 | 0.53 | 0.00 | 82 | 1007.7 |
| 20260505034525 | 6 | 96 | 9.7 | 0.0 | 0.00 | 0.53 | 0.00 | 81 | 1007.7 |
| 20260505034023 | 6 | 253 | 14.5 | 0.0 | 0.00 | 0.53 | 0.00 | 81 | 1007.7 |
| 20260505033021 | 7 | 322 | 6.4 | 0.0 | 0.00 | 0.53 | 0.00 | 80 | 1007.4 |
| 20260505032519 | 7 | 257 | 8.0 | 0.0 | 0.00 | 0.53 | 0.00 | 80 | 1007.4 |
| 20260505032018 | 6 | 252 | 11.3 | 0.0 | 0.00 | 0.53 | 0.00 | 80 | 1007.4 |
| 20260505030013 | 6 | 194 | 11.3 | 0.0 | 0.00 | 0.53 | 0.00 | 81 | 1006.7 |
| 20260505025010 | 7 | 257 | 8.0 | 0.0 | 0.00 | 0.53 | 0.00 | 80 | 1006.7 |
| 20260505024509 | 7 | 214 | 9.7 | 0.0 | 0.00 | 0.53 | 0.00 | 80 | 1006.7 |
| 20260505024008 | 7 | 244 | 9.7 | 0.0 | 0.00 | 0.53 | 0.00 | 80 | 1006.7 |
| 20260505023506 | 7 | 219 | 9.7 | 0.0 | 0.00 | 0.53 | 0.00 | 79 | 1006.7 |
| 20260505023004 | 7 | 169 | 4.8 | 0.0 | 0.00 | 0.53 | 0.00 | 79 | 1006.7 |
| 20260505022503 | 7 | 252 | 3.2 | 0.0 | 0.00 | 0.53 | 0.00 | 78 | 1006.7 |
| 20260505022003 | 7 | 306 | 6.4 | 0.0 | 0.00 | 0.53 | 0.00 | 78 | 1006.3 |
| 20260505021501 | 7 | 208 | 4.8 | 0.0 | 0.00 | 0.56 | 0.00 | 78 | 1006.3 |
| 20260505015557 | 7 | 212 | 4.8 | 0.0 | 0.00 | 0.58 | 0.00 | 77 | 1006.3 |
| 20260505015056 | 7 | 204 | 11.3 | 0.0 | 0.00 | 0.58 | 0.00 | 77 | 1006.3 |
| 20260505014051 | 7 | 270 | 11.3 | 0.0 | 0.00 | 0.58 | 0.00 | 76 | 1006.0 |
| 20260505013548 | 7 | 280 | 9.7 | 0.0 | 0.00 | 0.61 | 0.00 | 76 | 1006.0 |
| 20260505013047 | 7 | 228 | 4.8 | 0.0 | 0.00 | 0.61 | 0.00 | 76 | 1006.0 |
| 20260505012545 | 7 | 217 | 4.8 | 0.0 | 0.00 | 0.61 | 0.00 | 77 | 1006.0 |
| 20260505012044 | 7 | 240 | 9.7 | 0.0 | 0.00 | 0.64 | 0.00 | 77 | 1006.0 |
| 20260505011541 | 7 | 240 | 17.7 | 0.0 | 0.00 | 0.64 | 0.00 | 77 | 1006.0 |
| 20260505011038 | 7 | 236 | 6.4 | 0.0 | 0.00 | 0.64 | 0.00 | 77 | 1006.0 |
| 20260505010031 | 8 | 214 | 4.8 | 0.0 | 0.00 | 0.64 | 0.00 | 76 | 1005.7 |
| 20260505005530 | 8 | 250 | 3.2 | 0.0 | 0.00 | 0.64 | 0.00 | 75 | 1005.7 |
| 20260505005028 | 8 | 236 | 9.7 | 0.0 | 0.00 | 0.64 | 0.00 | 75 | 1005.7 |
| 20260505004525 | 8 | 178 | 14.5 | 0.0 | 0.00 | 0.64 | 0.00 | 75 | 1005.7 |
| 20260505004024 | 8 | 259 | 11.3 | 0.0 | 0.00 | 0.64 | 0.00 | 74 | 1005.7 |
| 20260505003020 | 8 | 235 | 19.3 | 0.0 | 0.00 | 0.66 | 0.00 | 73 | 1005.3 |
| 20260505002517 | 8 | 266 | 8.0 | 0.0 | 0.00 | 0.66 | 0.00 | 73 | 1005.3 |
| 20260505002014 | 8 | 198 | 8.0 | 0.0 | 0.00 | 0.69 | 0.00 | 73 | 1005.3 |
| 20260505001514 | 9 | 252 | 11.3 | 0.0 | 0.00 | 0.69 | 0.00 | 73 | 1005.0 |
| 20260505001011 | 9 | 214 | 9.7 | 0.0 | 0.00 | 0.69 | 0.00 | 72 | 1005.0 |
| 20260505000508 | 9 | 230 | 11.3 | 0.0 | 0.00 | 0.71 | 0.00 | 71 | 1005.0 |
| 20260505000006 | 9 | 248 | 4.8 | 0.0 | 0.00 | 0.71 | 0.00 | 71 | 1005.0 |
| 20260504235504 | 9 | 247 | 11.3 | 0.0 | 0.00 | 0.71 | 0.00 | 71 | 1005.0 |
| 20260504235002 | 10 | 331 | 9.7 | 0.0 | 0.00 | 0.74 | 0.00 | 70 | 1004.6 |
| 20260504234057 | 10 | 270 | 11.3 | 0.0 | 0.00 | 0.74 | 0.00 | 70 | 1004.6 |
| 20260504233054 | 10 | 205 | 14.5 | 0.0 | 0.00 | 0.76 | 0.00 | 69 | 1004.3 |
| 20260504232052 | 10 | 233 | 14.5 | 0.0 | 0.00 | 0.79 | 0.00 | 68 | 1004.3 |
| 20260504231048 | 10 | 272 | 16.1 | 0.0 | 0.00 | 0.81 | 0.00 | 66 | 1004.3 |
| 20260504230548 | 10 | 296 | 20.9 | 0.0 | 0.00 | 0.81 | 0.00 | 66 | 1003.9 |
| 20260504230046 | 11 | 242 | 12.9 | 0.0 | 0.00 | 0.84 | 0.00 | 65 | 1003.9 |
| 20260504225545 | 11 | 283 | 27.4 | 0.0 | 0.00 | 0.84 | 0.00 | 64 | 1003.9 |
| 20260504225044 | 11 | 228 | 12.9 | 0.0 | 0.00 | 0.84 | 0.00 | 63 | 1003.9 |
| 20260504224542 | 11 | 260 | 12.9 | 0.0 | 0.00 | 0.84 | 0.00 | 62 | 1003.9 |
| 20260504224042 | 11 | 222 | 24.1 | 0.0 | 0.00 | 0.86 | 0.00 | 61 | 1003.9 |
| 20260504223541 | 11 | 269 | 30.6 | 0.0 | 0.00 | 0.91 | 0.00 | 60 | 1003.9 |
| 20260504223039 | 12 | 227 | 20.9 | 0.0 | 0.00 | 0.97 | 0.00 | 59 | 1003.9 |
| 20260504222538 | 12 | 263 | 6.4 | 0.0 | 0.00 | 0.97 | 0.00 | 59 | 1003.6 |
| 20260504222034 | 11 | 297 | 17.7 | 0.0 | 0.00 | 1.02 | 0.00 | 59 | 1003.6 |
| 20260504221532 | 11 | 323 | 16.1 | 0.0 | 0.00 | 1.07 | 0.00 | 59 | 1003.6 |
| 20260504221030 | 11 | 264 | 14.5 | 0.0 | 0.00 | 1.07 | 0.00 | 58 | 1003.6 |
| 20260504220529 | 11 | 262 | 11.3 | 0.0 | 0.00 | 1.12 | 0.00 | 57 | 1003.6 |
| 20260504220026 | 11 | 249 | 22.5 | 0.0 | 0.00 | 1.12 | 0.00 | 55 | 1003.6 |
| 20260504215524 | 11 | 273 | 19.3 | 0.0 | 0.00 | 1.14 | 0.00 | 52 | 1003.6 |
| 20260504215023 | 11 | 223 | 22.5 | 0.0 | 0.00 | 1.19 | 0.00 | 49 | 1003.6 |
| 20260504214522 | 11 | 243 | 12.9 | 0.0 | 0.00 | 1.27 | 0.00 | 46 | 1003.6 |
| 20260504214020 | 12 | 218 | 14.5 | 0.0 | 0.00 | 1.32 | 0.00 | 44 | 1003.6 |
| 20260504213518 | 12 | 209 | 20.9 | 0.0 | 0.00 | 1.37 | 0.00 | 41 | 1003.6 |
| 20260504212514 | 12 | 256 | 12.9 | 0.0 | 0.00 | 1.40 | 0.00 | 36 | 1003.3 |
| 20260504212013 | 12 | 248 | 25.7 | 0.0 | 0.00 | 1.42 | 0.00 | 36 | 1003.3 |
| 20260504211511 | 12 | 252 | 14.5 | 0.0 | 0.00 | 1.45 | 0.00 | 36 | 1003.3 |
| 20260504211009 | 12 | 226 | 24.1 | 0.0 | 0.00 | 1.45 | 0.00 | 33 | 1003.3 |
| 20260504210508 | 13 | 241 | 9.7 | 0.0 | 0.00 | 1.47 | 0.00 | 35 | 1003.3 |
| 20260504210005 | 13 | 235 | 35.4 | 0.0 | 0.00 | 1.47 | 0.00 | 35 | 1003.3 |
| 20260504205503 | 13 | 278 | 19.3 | 0.0 | 0.00 | 1.47 | 0.00 | 35 | 1003.3 |
| 20260504205001 | 13 | 222 | 24.1 | 0.0 | 0.00 | 1.50 | 0.00 | 36 | 1003.3 |
| 20260504204059 | 13 | 257 | 24.1 | 0.0 | 0.00 | 1.52 | 0.00 | 38 | 1002.9 |
| 20260504203557 | 13 | 196 | 22.5 | 0.0 | 0.00 | 1.52 | 0.00 | 39 | 1002.9 |
| 20260504203055 | 13 | 227 | 24.1 | 0.0 | 0.00 | 1.52 | 0.00 | 37 | 1002.9 |
| 20260504202554 | 13 | 251 | 9.7 | 0.0 | 0.00 | 1.52 | 0.00 | 40 | 1002.9 |
| 20260504201548 | 13 | 276 | 25.7 | 0.0 | 0.00 | 1.57 | 0.00 | 39 | 1002.2 |
| 20260504201047 | 13 | 255 | 22.5 | 0.0 | 0.00 | 1.60 | 0.00 | 39 | 1002.2 |
| 20260504195037 | 13 | 191 | 14.5 | 0.0 | 0.00 | 1.68 | 0.00 | 41 | 1001.9 |
| 20260504194534 | 13 | 259 | 27.4 | 0.0 | 0.00 | 1.68 | 0.00 | 43 | 1001.9 |
| 20260504194030 | 13 | 262 | 19.3 | 0.0 | 0.00 | 1.73 | 0.00 | 41 | 1001.9 |
| 20260504193528 | 13 | 267 | 19.3 | 0.0 | 0.00 | 1.73 | 0.00 | 43 | 1001.9 |
| 20260504193026 | 13 | 233 | 22.5 | 0.0 | 0.00 | 1.75 | 0.00 | 41 | 1001.9 |
| 20260504192525 | 13 | 275 | 8.0 | 0.0 | 0.00 | 1.78 | 0.00 | 43 | 1001.9 |
| 20260504192022 | 13 | 282 | 12.9 | 0.0 | 0.00 | 1.78 | 0.00 | 43 | 1001.9 |
| 20260504191520 | 13 | 296 | 14.5 | 0.0 | 0.00 | 1.80 | 0.00 | 45 | 1001.9 |
| 20260504190516 | 13 | 287 | 24.1 | 0.0 | 0.00 | 1.85 | 0.00 | 44 | 1001.9 |
| 20260504190015 | 12 | 295 | 19.3 | 0.0 | 0.00 | 1.88 | 0.00 | 45 | 1001.9 |
| 20260504185010 | 12 | 246 | 20.9 | 0.0 | 0.00 | 1.91 | 0.00 | 47 | 1001.9 |
| 20260504184508 | 12 | 245 | 20.9 | 0.0 | 0.00 | 1.93 | 0.00 | 47 | 1001.9 |
| 20260504184006 | 12 | 271 | 19.3 | 0.0 | 0.00 | 1.96 | 0.00 | 48 | 1001.9 |
| 20260504183002 | 12 | 284 | 9.7 | 0.0 | 0.00 | 1.98 | 0.00 | 52 | 1001.9 |
| 20260504182059 | 11 | 246 | 22.5 | 0.0 | 0.00 | 2.03 | 0.00 | 53 | 1001.9 |
| 20260504181054 | 11 | 281 | 17.7 | 0.0 | 0.00 | 2.03 | 0.00 | 54 | 1001.9 |
| 20260504180050 | 11 | 238 | 14.5 | 0.0 | 0.00 | 2.06 | 0.00 | 55 | 1001.9 |
| 20260504175549 | 11 | 241 | 25.7 | 0.0 | 0.00 | 2.06 | 0.00 | 56 | 1001.9 |
| 20260504175044 | 11 | 220 | 12.9 | 0.0 | 0.00 | 2.06 | 0.00 | 58 | 1001.6 |
| 20260504174543 | 11 | 270 | 24.1 | 0.0 | 0.00 | 2.06 | 0.00 | 57 | 1001.9 |
| 20260504173541 | 11 | 285 | 29.0 | 0.0 | 0.00 | 2.06 | 0.00 | 60 | 1001.6 |
| 20260504173038 | 11 | 277 | 14.5 | 0.0 | 0.00 | 2.06 | 0.00 | 62 | 1001.6 |
| 20260504172535 | 10 | 323 | 14.5 | 0.0 | 0.00 | 2.06 | 0.00 | 62 | 1001.6 |
| 20260504172031 | 10 | 224 | 20.9 | 0.0 | 0.00 | 2.06 | 0.00 | 62 | 1001.6 |
| 20260504171529 | 11 | 244 | 14.5 | 0.0 | 0.00 | 2.06 | 0.00 | 62 | 1001.2 |
| 20260504171026 | 11 | 285 | 20.9 | 0.0 | 0.00 | 2.06 | 0.00 | 61 | 1001.2 |
| 20260504151040 | 7 | 276 | 32.2 | 0.0 | 0.00 | 2.06 | 0.00 | 87 | 1000.5 |
| 20260504150539 | 6 | 214 | 11.3 | 0.0 | 0.00 | 2.06 | 0.00 | 88 | 1000.5 |
| 20260504141020 | 5 | 255 | 16.1 | 0.0 | 0.00 | 2.06 | 0.00 | 91 | 999.5 |
| 20260504140519 | 5 | 272 | 11.3 | 0.0 | 0.00 | 2.06 | 0.00 | 92 | 999.5 |
| 20260504130503 | 5 | 213 | 25.7 | 0.0 | 0.00 | 2.06 | 0.00 | 96 | 998.5 |
| 20260504100513 | 2 | 292 | 24.1 | 0.0 | 0.05 | 2.01 | 0.00 | 99 | 993.7 |
| 20260504081042 | 1 | 248 | 22.5 | 0.0 | 0.05 | 1.91 | 0.00 | 10 | 990.0 |
| 20260504080541 | 1 | 265 | 27.4 | 0.0 | 0.30 | 1.91 | 0.00 | 10 | 989.6 |
| 20260504050548 | 2 | 288 | 22.5 | 0.0 | 0.00 | 1.52 | 0.00 | 10 | 983.1 |
| 20260504045545 | 2 | 327 | 25.7 | 0.0 | 0.00 | 1.52 | 0.00 | 10 | 982.5 |
| 20260504044542 | 2 | 308 | 24.1 | 0.0 | 0.00 | 1.52 | 0.00 | 10 | 982.5 |
| 20260504044040 | 2 | 336 | 27.4 | 0.0 | 0.00 | 1.52 | 0.00 | 10 | 982.1 |
| 20260504043538 | 2 | 275 | 32.2 | 0.0 | 0.00 | 1.52 | 0.00 | 10 | 982.1 |
| 20260504043036 | 2 | 317 | 12.9 | 0.0 | 0.00 | 1.52 | 0.00 | 10 | 981.8 |
| 20260504042535 | 2 | 295 | 22.5 | 0.0 | 0.00 | 1.52 | 0.00 | 10 | 981.8 |
| 20260504042030 | 2 | 317 | 22.5 | 0.0 | 0.00 | 1.52 | 0.00 | 10 | 981.4 |